Archiv-/Tagesdaten

--Timestamp---	Temp	Chill	HIndex	Humid	Dewpt	 Wind 	HiWind	WindDir	Rain 	Barom	Solar	 ET  	 UV 
--------------	----	-----	------	-----	-----	------	------	-------	-----	-----	-----	-----	----
20260510 00:00	14.1	14.1	14.1	63	7.2	3	8	90	0.0	1012.6	0	0.051	0.0
20260510 00:05	14.1	14.1	14.1	63	7.2	3	8	90	0.0	1012.4	0	0.000	0.0
20260510 00:10	14.2	14.2	14.2	64	7.5	3	10	90	0.0	1012.3	0	0.000	0.0
20260510 00:15	14.2	14.2	14.2	64	7.5	5	8	112	0.0	1012.2	0	0.000	0.0
20260510 00:20	14.2	14.2	14.2	64	7.5	5	11	112	0.0	1012.2	0	0.000	0.0
20260510 00:25	14.2	14.2	14.2	65	7.7	5	10	112	0.0	1012.2	0	0.000	0.0
20260510 00:30	14.1	14.1	14.1	65	7.6	5	8	90	0.0	1012.3	0	0.000	0.0
20260510 00:35	14.0	14.0	14.0	65	7.5	3	8	90	0.0	1012.3	0	0.000	0.0
20260510 00:40	14.0	14.0	14.0	66	7.7	3	6	90	0.0	1012.3	0	0.000	0.0
20260510 00:45	13.9	13.9	13.9	66	7.7	3	8	90	0.0	1012.4	0	0.000	0.0
20260510 00:50	13.9	13.9	13.9	67	7.9	3	10	90	0.0	1012.4	0	0.000	0.0
20260510 00:55	13.9	13.9	13.9	67	7.9	5	11	112	0.0	1012.3	0	0.000	0.0
20260510 01:00	13.8	13.8	13.8	67	7.8	5	11	90	0.0	1012.3	0	0.051	0.0
20260510 01:05	13.8	13.8	13.8	67	7.8	3	8	112	0.0	1012.0	0	0.000	0.0
20260510 01:10	13.7	13.7	13.7	68	7.9	5	10	112	0.0	1012.0	0	0.000	0.0
20260510 01:15	13.7	13.7	13.7	68	7.9	5	11	112	0.0	1011.9	0	0.000	0.0
20260510 01:20	13.6	13.6	13.6	69	8.0	6	14	112	0.0	1012.0	0	0.000	0.0
20260510 01:25	13.4	13.4	13.4	69	7.9	6	13	112	0.0	1011.9	0	0.000	0.0
20260510 01:30	13.3	13.3	13.3	70	7.9	6	14	112	0.0	1011.9	0	0.000	0.0
20260510 01:35	13.2	13.2	13.2	70	7.9	6	13	112	0.0	1011.8	0	0.000	0.0
20260510 01:40	13.1	13.1	13.1	71	8.0	8	14	90	0.0	1011.8	0	0.000	0.0
20260510 01:45	13.0	13.0	13.0	71	7.9	6	14	112	0.0	1011.7	0	0.000	0.0
20260510 01:50	12.9	12.9	12.9	72	8.0	6	11	112	0.0	1011.7	0	0.000	0.0
20260510 01:55	12.9	12.9	12.9	72	8.0	5	10	112	0.0	1011.7	0	0.000	0.0
20260510 02:00	12.8	12.8	12.8	72	7.9	3	6	112	0.0	1011.7	0	0.025	0.0
20260510 02:05	12.8	12.8	12.8	73	8.1	3	5	90	0.0	1011.7	0	0.000	0.0
20260510 02:10	12.7	12.7	12.7	73	8.0	3	6	90	0.0	1011.6	0	0.000	0.0
20260510 02:15	12.5	12.5	12.5	74	8.0	2	6	112	0.0	1011.6	0	0.000	0.0
20260510 02:20	12.4	12.4	12.4	74	7.9	0	2	112	0.0	1011.7	0	0.000	0.0
20260510 02:25	12.2	12.2	12.2	74	7.7	0	0	-100000	0.0	1011.6	0	0.000	0.0
20260510 02:30	12.0	12.0	12.0	75	7.7	0	2	112	0.0	1011.6	0	0.000	0.0
20260510 02:35	11.7	11.7	11.7	75	7.4	0	2	112	0.0	1011.5	0	0.000	0.0
20260510 02:40	11.4	11.4	11.4	76	7.4	0	0	-100000	0.0	1011.6	0	0.000	0.0
20260510 02:45	11.2	11.2	11.2	77	7.3	0	0	-100000	0.0	1011.6	0	0.000	0.0
20260510 02:50	11.1	11.1	11.1	78	7.4	0	0	-100000	0.0	1011.6	0	0.000	0.0
20260510 02:55	10.9	10.9	10.9	79	7.4	0	0	-100000	0.0	1011.6	0	0.000	0.0
20260510 03:00	10.8	10.8	10.8	79	7.3	0	0	-100000	0.0	1011.5	0	0.025	0.0
20260510 03:05	10.8	10.8	10.8	80	7.5	0	0	-100000	0.0	1011.3	0	0.000	0.0
20260510 03:10	10.7	10.7	10.7	80	7.4	0	0	-100000	0.0	1011.5	0	0.000	0.0
20260510 03:15	10.7	10.7	10.7	80	7.4	0	0	-100000	0.0	1011.6	0	0.000	0.0
20260510 03:20	10.6	10.6	10.6	81	7.5	0	0	-100000	0.0	1011.4	0	0.000	0.0
20260510 03:25	10.6	10.6	10.6	81	7.5	2	5	112	0.0	1011.4	0	0.000	0.0
20260510 03:30	10.6	10.6	10.6	81	7.5	0	3	112	0.0	1011.3	0	0.000	0.0
20260510 03:35	10.6	10.6	10.6	82	7.7	2	3	112	0.0	1011.3	0	0.000	0.0
20260510 03:40	10.6	10.6	10.6	82	7.7	0	5	112	0.0	1011.2	0	0.000	0.0
20260510 03:45	10.7	10.7	10.7	82	7.7	2	5	112	0.0	1011.2	0	0.000	0.0
20260510 03:50	10.7	10.7	10.7	82	7.7	2	5	112	0.0	1011.1	0	0.000	0.0
20260510 03:55	10.7	10.7	10.7	82	7.7	0	0	-100000	0.0	1011.2	0	0.000	0.0
20260510 04:00	10.6	10.6	10.6	82	7.7	0	0	-100000	0.0	1011.1	0	0.025	0.0
20260510 04:05	10.6	10.6	10.6	82	7.6	0	0	-100000	0.0	1011.1	0	0.000	0.0
20260510 04:10	10.5	10.5	10.5	82	7.6	0	0	-100000	0.0	1011.1	0	0.000	0.0
20260510 04:15	10.4	10.4	10.4	82	7.5	0	0	-100000	0.0	1011.1	0	0.000	0.0
20260510 04:20	10.3	10.3	10.3	83	7.5	0	0	-100000	0.0	1011.2	0	0.000	0.0
20260510 04:25	10.2	10.2	10.2	83	7.4	0	0	-100000	0.0	1011.2	0	0.000	0.0
20260510 04:30	10.1	10.1	10.1	83	7.3	0	0	-100000	0.0	1011.2	0	0.000	0.0
20260510 04:35	10.0	10.0	10.0	84	7.4	0	0	-100000	0.0	1011.2	0	0.000	0.0
20260510 04:40	9.9	9.9	9.9	84	7.4	0	0	-100000	0.0	1011.1	0	0.000	0.0
20260510 04:45	9.9	9.9	9.9	84	7.4	0	0	-100000	0.0	1011.0	0	0.000	0.0
20260510 04:50	9.9	9.9	9.9	84	7.3	0	0	-100000	0.0	1011.0	0	0.000	0.0
20260510 04:55	9.8	9.8	9.8	84	7.2	0	0	-100000	0.0	1011.0	0	0.000	0.0
20260510 05:00	9.7	9.7	9.7	84	7.1	0	0	-100000	0.0	1011.1	0	0.000	0.0
20260510 05:05	9.6	9.6	9.6	85	7.2	0	0	-100000	0.0	1011.0	0	0.000	0.0
20260510 05:10	9.4	9.4	9.4	85	7.0	0	0	-100000	0.0	1010.9	0	0.000	0.0
20260510 05:15	9.4	9.4	9.4	85	7.0	0	0	-100000	0.0	1010.9	0	0.000	0.0
20260510 05:20	9.5	9.5	9.5	86	7.3	0	0	-100000	0.0	1010.8	0	0.000	0.0
20260510 05:25	9.5	9.5	9.5	86	7.3	0	0	-100000	0.0	1010.8	0	0.000	0.0
20260510 05:30	9.4	9.4	9.4	86	7.2	0	0	-100000	0.0	1010.8	0	0.000	0.0
20260510 05:35	9.4	9.4	9.4	86	7.2	0	0	-100000	0.0	1010.7	0	0.000	0.0
20260510 05:40	9.3	9.3	9.3	86	7.1	0	0	-100000	0.0	1010.8	0	0.000	0.0
20260510 05:45	9.2	9.2	9.2	86	6.9	0	0	-100000	0.0	1010.9	2	0.000	0.0
20260510 05:50	9.1	9.1	9.1	86	6.8	0	0	-100000	0.0	1011.1	6	0.000	0.0
20260510 05:55	9.1	9.1	9.1	87	7.0	0	0	-100000	0.0	1011.0	8	0.000	0.0
20260510 06:00	9.1	9.1	9.1	87	7.0	0	0	-100000	0.0	1010.9	10	0.000	0.0
20260510 06:05	9.1	9.1	9.1	87	7.0	0	0	-100000	0.0	1011.0	12	0.000	0.0
20260510 06:10	9.1	9.1	9.1	87	7.0	0	0	-100000	0.0	1011.0	14	0.000	0.0
20260510 06:15	8.9	8.9	8.9	87	6.9	0	0	-100000	0.0	1011.0	16	0.000	0.0
20260510 06:20	8.9	8.9	8.9	87	6.9	0	0	-100000	0.0	1011.0	18	0.000	0.0
20260510 06:25	8.8	8.8	8.8	87	6.8	0	0	-100000	0.0	1011.0	19	0.000	0.0
20260510 06:30	8.8	8.8	8.8	87	6.8	0	0	-100000	0.0	1010.9	21	0.000	0.0
20260510 06:35	9.1	9.1	9.1	88	7.2	0	0	-100000	0.0	1010.8	24	0.000	0.0
20260510 06:40	9.1	9.1	9.1	88	7.2	0	0	-100000	0.0	1010.9	26	0.000	0.0
20260510 06:45	9.1	9.1	9.1	88	7.2	0	0	-100000	0.0	1010.9	27	0.000	0.0
20260510 06:50	9.3	9.3	9.3	88	7.4	0	0	-100000	0.0	1010.9	29	0.000	0.0
20260510 06:55	9.4	9.4	9.4	88	7.6	0	2	68	0.0	1010.9	31	0.000	0.0
20260510 07:00	9.7	9.7	9.7	88	7.8	0	2	180	0.0	1010.8	32	0.000	0.0
20260510 07:05	9.9	9.9	9.9	88	8.0	0	3	135	0.0	1010.9	33	0.000	0.0
20260510 07:10	10.3	10.3	10.3	87	8.3	0	0	-100000	0.0	1010.9	34	0.000	0.0
20260510 07:15	10.6	10.6	10.6	87	8.5	0	0	-100000	0.0	1010.8	35	0.000	0.0
20260510 07:20	10.7	10.7	10.7	86	8.4	0	0	-100000	0.0	1010.9	35	0.000	0.0
20260510 07:25	10.8	10.8	10.8	86	8.6	0	0	-100000	0.0	1010.8	38	0.000	0.0
20260510 07:30	11.1	11.1	11.1	85	8.7	2	5	90	0.0	1010.7	197	0.000	0.0
20260510 07:35	11.5	11.5	11.5	85	9.1	3	8	45	0.0	1010.5	195	0.000	0.0
20260510 07:40	11.8	11.8	11.8	84	9.2	3	8	45	0.0	1010.4	250	0.000	0.0
20260510 07:45	12.5	12.5	12.5	82	9.5	5	10	90	0.0	1010.4	266	0.000	0.0
20260510 07:50	13.2	13.2	13.2	80	9.8	3	6	90	0.0	1010.3	280	0.000	0.0
20260510 07:55	13.8	13.8	13.8	78	10.1	0	5	112	0.0	1010.2	294	0.000	0.1
20260510 08:00	14.2	14.2	14.2	75	9.8	3	8	112	0.0	1010.1	308	0.076	0.5
20260510 08:05	14.4	14.4	14.4	74	9.9	3	8	112	0.0	1010.2	321	0.000	0.5
20260510 08:10	14.6	14.6	14.6	74	10.0	3	8	112	0.0	1010.1	336	0.000	0.5
20260510 08:15	14.7	14.7	14.7	73	9.9	5	8	90	0.0	1010.1	351	0.000	0.6
20260510 08:20	15.0	15.0	15.0	73	10.2	5	8	90	0.0	1010.2	364	0.000	0.6
20260510 08:25	14.9	14.9	14.9	73	10.1	3	8	68	0.0	1010.2	367	0.000	0.7
20260510 08:30	15.0	15.0	15.0	73	10.2	3	10	68	0.0	1010.1	385	0.000	0.7
20260510 08:35	15.2	15.2	15.2	73	10.4	5	11	68	0.0	1010.0	408	0.000	0.8
20260510 08:40	15.5	15.5	15.5	71	10.3	3	8	112	0.0	1009.9	420	0.000	0.8
20260510 08:45	15.7	15.7	15.7	70	10.2	3	6	68	0.0	1009.9	416	0.000	0.9
20260510 08:50	15.8	15.8	15.8	70	10.4	5	10	112	0.0	1010.0	455	0.000	0.9
20260510 08:55	16.3	16.3	16.3	68	10.4	5	10	90	0.0	1010.0	458	0.000	1.0
20260510 09:00	16.6	16.6	16.6	67	10.4	5	10	68	0.0	1009.8	479	0.229	1.1
20260510 09:05	16.8	16.8	16.8	67	10.6	5	11	112	0.0	1009.9	490	0.000	1.1
20260510 09:10	17.0	17.0	17.0	66	10.6	5	10	90	0.0	1009.8	493	0.000	1.2
20260510 09:15	17.3	17.3	17.3	65	10.7	5	11	112	0.0	1009.7	499	0.000	1.2
20260510 09:20	17.6	17.6	17.6	64	10.7	5	10	90	0.0	1009.6	500	0.000	1.3
20260510 09:25	17.6	17.6	17.6	63	10.4	5	16	90	0.0	1009.5	477	0.000	1.3
20260510 09:30	17.7	17.7	17.7	62	10.3	6	16	90	0.0	1009.6	542	0.000	1.3
20260510 09:35	17.5	17.5	17.5	64	10.6	8	14	45	0.0	1009.5	520	0.000	1.4
20260510 09:40	17.5	17.5	17.5	64	10.6	6	16	90	0.0	1009.5	525	0.000	1.4
20260510 09:45	18.0	18.0	18.0	63	10.8	6	14	68	0.0	1009.5	556	0.000	1.5
20260510 09:50	18.4	18.4	18.4	61	10.7	6	18	68	0.0	1009.4	553	0.000	1.6
20260510 09:55	18.3	18.3	18.3	62	10.9	5	11	68	0.0	1009.3	598	0.000	1.7
20260510 10:00	18.4	18.4	18.4	62	11.0	8	16	90	0.0	1009.2	601	0.330	1.7
20260510 10:05	18.6	18.6	18.6	61	10.9	6	16	90	0.0	1009.3	610	0.000	1.8
20260510 10:10	18.8	18.8	18.8	61	11.1	5	11	68	0.0	1009.3	324	0.000	1.6
20260510 10:15	18.9	18.9	18.9	58	10.4	10	19	90	0.0	1009.2	134	0.000	1.2
20260510 10:20	18.7	18.7	18.7	62	11.3	6	14	68	0.0	1009.0	146	0.000	1.2
20260510 10:25	18.8	18.8	18.8	61	11.1	6	18	68	0.0	1009.1	164	0.000	1.3
20260510 10:30	19.1	19.1	19.1	57	10.4	11	21	90	0.0	1009.0	185	0.000	1.3
20260510 10:35	19.3	19.3	19.3	55	10.1	11	19	90	0.0	1008.9	203	0.000	1.4
20260510 10:40	19.6	19.6	19.6	56	10.5	10	21	112	0.0	1008.8	214	0.000	1.4
20260510 10:45	19.3	19.3	19.3	56	10.3	10	19	45	0.0	1008.8	209	0.000	1.3
20260510 10:50	19.0	19.0	19.0	58	10.5	8	16	90	0.0	1008.9	202	0.000	1.3



Please note the license to use and transfer of this data:
https://creativecommons.org/licenses/by-nc-sa/3.0/deed.en

Bitte beachten sie die Lizenz zur Verwertung und Weitergabe der Daten:
https://creativecommons.org/licenses/by-nc-sa/3.0/deed.de

zurück zur Übersicht der Archivdaten (Monats und Tagesdaten)